This demonstration page uses our WeatherBlox Daily Observations layout. Learn more.

Left ArrowRight Arrow

39.51506, -84.39828

Hourly Observations for September 19, 2021

Temp ( °F °C ) Dew Point ( °F °C ) Humidity (%) Winds ( mph kmh ) Pressure ( in mb ) Visibility ( mi km ) Precip ( " mm )
12:15 am 00:15 Clear 68 20 68 20 100 100 N N/A 30.13 1020 10 16 N/A
12:35 am 00:35 Clear 66 19 66 19 100 100 NNE 3 6 30.14 1021 10 16 N/A
12:55 am 00:55 Clear 66 19 N/A N/A N 3 6 30.14 1021 10 16 N/A
1:15 am 01:15 Clear 66 19 N/A N/A NNE 3 6 30.14 1021 10 16 N/A
1:35 am 01:35 Clear 67 19.6 67 19.6 100 100 N 5 7 30.14 1021 10 16 N/A
1:55 am 01:55 Clear 66 19 66 19 100 100 N N/A 30.14 1021 10 16 N/A
2:15 am 02:15 Clear 68 20 N/A N/A N N/A 30.13 1020 10 16 N/A
2:35 am 02:35 Clear 66 19 66 19 100 100 N 3 6 30.14 1021 10 16 N/A
2:55 am 02:55 Clear 66 19 N/A N/A N 3 6 30.14 1021 10 16 N/A
3:15 am 03:15 Clear 66 19 N/A N/A N N/A 30.14 1021 10 16 N/A
3:35 am 03:35 Clear 64 18 N/A N/A N N/A 30.14 1021 7 11 N/A
3:55 am 03:55 Clear 66 19 N/A N/A N N/A 30.13 1020 10 16 N/A
4:15 am 04:15 Clear 66 19 N/A N/A N N/A 30.13 1020 10 16 N/A
4:35 am 04:35 Clear 64 18 N/A N/A N N/A 30.14 1021 10 16 N/A
4:55 am 04:55 Hazy 64 18 N/A N/A N N/A 30.14 1021 7 11 N/A
5:15 am 05:15 Clear 64 18 N/A N/A NNE 3 6 30.14 1021 7 11 N/A
5:35 am 05:35 Clear 64 18 N/A N/A N N/A 30.14 1021 7 11 N/A
5:55 am 05:55 Clear with Mist and Fog 63 17 N/A N/A NNE 3 6 30.15 1021 3 4 N/A
6:15 am 06:15 Hazy 63 17 N/A N/A N 5 7 30.15 1021 7 11 N/A
6:35 am 06:35 Hazy 63 17 N/A N/A N 3 6 30.15 1021 7 11 N/A
6:55 am 06:55 Hazy 63 17 N/A N/A N N/A 30.15 1021 7 11 N/A
7:15 am 07:15 Hazy 63 17 N/A N/A N 3 6 30.15 1021 5 8 N/A
7:35 am 07:35 Hazy 64 18 N/A N/A N 3 6 30.16 1021 7 11 N/A
7:55 am 07:55 Sunny 63 17 N/A N/A N N/A 30.16 1021 7 11 N/A
8:15 am 08:15 Sunny 64 18 N/A N/A N N/A 30.16 1021 7 11 N/A
8:35 am 08:35 Sunny 68 20 N/A N/A N N/A 30.16 1021 10 16 N/A
8:55 am 08:55 Sunny 69 20.3 68 20 98 98 NNE 5 7 30.16 1021 10 16 N/A
9:15 am 09:15 Sunny 70 21.1 68 20.2 95 95 NNE 3 6 30.16 1021 10 16 N/A
9:35 am 09:35 Sunny 71 21.6 68 20 91 91 NE 3 6 30.16 1021 10 16 N/A
9:55 am 09:55 Sunny 73 22.7 69 20.4 87 87 NE 5 7 30.16 1021 10 16 N/A
10:15 am 10:15 Sunny 75 23.8 69 20.4 81 81 ENE 3 6 30.16 1021 10 16 N/A
10:35 am 10:35 Sunny 76 24.7 70 20.9 79 79 NNE 5 7 30.14 1021 10 16 N/A
10:55 am 10:55 Sunny 78 25.4 70 21 77 77 NE 3 6 30.14 1021 10 16 N/A
11:15 am 11:15 Sunny 79 26.3 70 21.2 74 74 NE 5 7 30.14 1021 10 16 N/A
11:35 am 11:35 Sunny 82 27.5 70 21.2 69 69 NE 7 11 30.14 1021 10 16 N/A
11:55 am 11:55 Hazy 83 28.1 69 20.4 63 63 E 3 6 30.14 1021 3 5 N/A
12:15 pm 12:15 Sunny 83 28.4 68 20 60 60 SSE 7 11 30.13 1020 10 16 N/A
12:35 pm 12:35 Sunny 85 29.3 68 20 57 57 S 6 9 30.12 1020 10 16 N/A
12:55 pm 12:55 Sunny 84 28.8 67 19.2 56 56 SSE 6 9 30.11 1020 10 16 N/A
1:15 pm 13:15 Sunny 85 29.3 67 19.4 55 55 S 7 11 30.11 1020 10 16 N/A
1:35 pm 13:35 Sunny 86 29.9 66 18.9 52 52 E 7 11 30.10 1019 10 16 N/A
1:55 pm 13:55 Partly Cloudy 85 29.3 66 19 54 54 SSE 6 9 30.09 1019 10 16 N/A
2:15 pm 14:15 Partly Cloudy 88 31 66 19 49 49 E 7 11 30.08 1019 10 16 N/A
2:35 pm 14:35 Partly Cloudy 87 30.6 64 17.8 46 46 E 9 15 30.07 1018 10 16 N/A
2:55 pm 14:55 Partly Cloudy 87 30.6 64 18 47 47 SE 7 11 30.06 1018 10 16 N/A
3:15 pm 15:15 Mostly Cloudy 87 30.3 62 16.5 43 43 E 10 17 30.05 1018 10 16 N/A
3:35 pm 15:35 Partly Cloudy 88 30.9 63 17.3 44 44 E 7 11 30.05 1018 10 16 N/A
3:55 pm 15:55 Partly Cloudy 87 30.3 63 17.4 46 46 E 7 11 30.04 1017 10 16 N/A
4:15 pm 16:15 Partly Cloudy 87 30.8 64 17.6 45 45 ESE 10 17 30.04 1017 10 16 N/A
4:35 pm 16:35 Sunny 87 30.6 63 17.2 45 45 E 6 9 30.04 1017 10 16 N/A
4:55 pm 16:55 Sunny 86 30.1 63 17.4 46 46 SE 8 13 30.03 1017 10 16 N/A
5:15 pm 17:15 Sunny 85 29.6 64 17.9 49 49 SE 9 15 30.03 1017 10 16 N/A
5:35 pm 17:35 Sunny 84 29.1 64 18 51 51 SSE 7 11 30.03 1017 10 16 N/A
5:55 pm 17:55 Sunny 84 28.8 64 17.5 50 50 SE 8 13 30.03 1017 10 16 N/A
6:15 pm 18:15 Sunny 83 28.4 63 17.4 51 51 SSE 6 9 30.04 1017 10 16 N/A
6:35 pm 18:35 Sunny 83 28.1 64 17.7 53 53 SE 6 9 30.04 1017 10 16 N/A
6:55 pm 18:55 Sunny 82 27.7 64 17.8 55 55 SE 6 9 30.05 1018 10 16 N/A
7:15 pm 19:15 Sunny 82 27.5 64 17.9 56 56 SE 5 7 30.05 1018 10 16 N/A
7:35 pm 19:35 Sunny 81 27 65 18.1 58 58 SE 6 9 30.04 1017 10 16 N/A
7:55 pm 19:55 Clear 80 26.9 64 18 58 58 ESE 3 6 30.04 1017 10 16 N/A
8:15 pm 20:15 Clear 74 23.5 69 20.4 83 83 NE 3 6 30.05 1017 10 16 N/A
8:35 pm 20:35 Clear with Mist and Fog 73 22.8 70 21.2 91 91 N 3 6 30.05 1018 5 8 N/A
8:55 pm 20:55 Clear 72 22.2 70 21.1 94 94 N N/A 30.06 1018 10 16 N/A
9:15 pm 21:15 Clear 71 21.9 70 21 95 95 N N/A 30.06 1018 10 16 N/A
9:35 pm 21:35 Clear 71 21.6 69 20.8 95 95 N N/A 30.07 1018 10 16 N/A
9:55 pm 21:55 Clear 71 21.4 69 20.7 96 96 N N/A 30.07 1018 10 16 N/A
10:15 pm 22:15 Clear 71 21.5 69 20.7 95 95 N N/A 30.07 1018 10 16 N/A
10:35 pm 22:35 Clear 70 21.3 69 20.8 97 97 N N/A 30.07 1018 10 16 N/A
10:55 pm 22:55 Clear 70 21 69 20.8 99 99 N N/A 30.07 1018 10 16 N/A
11:15 pm 23:15 Clear 70 20.9 69 20.8 99 99 N N/A 30.07 1018 10 16 N/A
11:35 pm 23:35 Clear 70 21 70 21 100 100 N N/A 30.08 1019 10 16 N/A
11:55 pm 23:55 Clear 70 21.3 70 20.9 98 98 N N/A 30.08 1019 10 16 N/A

Powered by AerisWeather